Back to catalog

FENGYUN 1C DEB

AliveLEO
NORAD 30495·DEBRIS·🇨🇳 China

Launched May 10, 1999 from Taiyuan Satellite Launch Center

Loading…

Next Passes (next 24 hours)

TLE

FreshSource: Space-Track

Epoch: Sep 14, 2026, 07:29 UTC

1 30495U 99025AHH 26257.31236407 -.00000075  00000-0 -37499-4 0  9994
2 30495 102.2710  24.5557 0591620  62.0961 303.8759 12.95363111922405

Track FENGYUN 1C DEB in real time with AllMySat

Download on the App Store